Location: Spring Creek
(38.2870°N, 100.2160°W)
Time: 22:37:20
(UTC+00:00)

Cosmos 2082 Rocket - Pass Details

Date: 08 May 2021
Orbit: 834 x 853 km, 71.0° (Epoch: 20 June)

Event Time Altitude Azimuth Distance (km) Brightness Sun altitude
Rises 05:23:43 0° 338° (NNW) 3,388 6.5 -31.9°
Reaches altitude 10° 05:26:10 10° 340° (NNW) 2,451 5.5 -32.1°
Enters shadow 05:30:27 53° 352° (N) 1,017 2.8 -32.4°
